Time,TemperatureF,DewpointF,PressureIn,WindDirection,WindDirectionDegrees,WindSpeedMPH,WindSpeedGustMPH,Humidity,HourlyPrecipIn,Conditions,Clouds,dailyrainin,SoftwareType,DateUTC
2013-02-09 00:00:00,37.8,33.1,30.20,NW,308,1.0,5.0,83,0.00,,,0.01,meteohub,2013-02-09 05:00:00,
2013-02-09 00:01:00,37.8,33.1,30.20,NW,311,0.0,6.0,83,0.00,,,0.01,meteohub,2013-02-09 05:01:00,
2013-02-09 00:06:00,37.8,33.1,30.20,NNE,26,0.0,6.0,83,0.00,,,0.00,meteohub,2013-02-09 05:06:00,
2013-02-09 00:12:00,37.6,33.3,30.20,North,0,0.0,4.0,84,0.00,,,0.00,meteohub,2013-02-09 05:12:00,
2013-02-09 00:17:00,37.2,32.9,30.20,NE,48,0.0,4.0,84,0.00,,,0.00,meteohub,2013-02-09 05:17:00,
2013-02-09 00:22:00,37.2,32.9,30.20,ENE,57,0.0,5.0,84,0.00,,,0.00,meteohub,2013-02-09 05:22:00,
2013-02-09 00:27:00,37.2,32.9,30.20,NE,53,0.0,5.0,84,0.00,,,0.00,meteohub,2013-02-09 05:27:00,
2013-02-09 00:32:00,37.0,32.7,30.20,NE,34,0.0,5.0,84,0.00,,,0.00,meteohub,2013-02-09 05:32:00,
2013-02-09 00:37:00,36.9,32.7,30.20,NNW,334,0.0,3.0,85,0.00,,,0.00,meteohub,2013-02-09 05:37:00,
2013-02-09 00:42:00,36.9,32.5,30.20,NE,48,1.0,3.0,84,0.00,,,0.00,meteohub,2013-02-09 05:42:00,
2013-02-09 00:47:00,36.9,32.5,30.20,North,0,2.0,4.0,84,0.00,,,0.00,meteohub,2013-02-09 05:47:00,
2013-02-09 00:52:00,36.9,32.5,30.20,NNW,340,0.0,7.0,84,0.00,,,0.00,meteohub,2013-02-09 05:52:00,
2013-02-09 00:57:00,36.9,32.5,30.20,NNW,344,0.0,7.0,84,0.00,,,0.00,meteohub,2013-02-09 05:57:00,
2013-02-09 01:02:00,36.7,32.5,30.20,NNW,345,0.0,7.0,85,0.00,,,0.00,meteohub,2013-02-09 06:02:00,
2013-02-09 01:07:00,36.7,32.5,30.21,North,351,0.0,4.0,85,0.00,,,0.00,meteohub,2013-02-09 06:07:00,
2013-02-09 01:12:00,36.5,32.4,30.21,North,355,0.0,3.0,85,0.00,,,0.00,meteohub,2013-02-09 06:12:00,
2013-02-09 01:17:00,36.5,32.4,30.21,NNE,22,0.0,3.0,85,0.00,,,0.00,meteohub,2013-02-09 06:17:00,
2013-02-09 01:22:00,36.3,32.2,30.22,NNW,331,0.0,4.0,85,0.00,,,0.00,meteohub,2013-02-09 06:22:00,
2013-02-09 01:27:00,36.3,32.2,30.23,NNW,333,0.0,4.0,85,0.00,,,0.00,meteohub,2013-02-09 06:27:00,
2013-02-09 01:32:00,36.1,32.0,30.23,WNW,303,0.0,4.0,85,0.00,,,0.00,meteohub,2013-02-09 06:32:00,
2013-02-09 01:37:00,36.1,32.0,30.22,WNW,303,0.0,4.0,85,0.00,,,0.00,meteohub,2013-02-09 06:37:00,
2013-02-09 01:42:00,36.1,32.0,30.22,NW,323,0.0,4.0,85,0.00,,,0.00,meteohub,2013-02-09 06:42:00,
2013-02-09 01:47:00,36.0,31.8,30.23,NW,323,0.0,5.0,85,0.00,,,0.00,meteohub,2013-02-09 06:47:00,
2013-02-09 01:52:00,36.0,31.8,30.22,NW,323,0.0,5.0,85,0.00,,,0.00,meteohub,2013-02-09 06:52:00,
2013-02-09 01:57:00,36.0,31.8,30.22,NNW,347,0.0,6.0,85,0.00,,,0.00,meteohub,2013-02-09 06:57:00,
2013-02-09 02:02:00,36.0,31.8,30.23,NE,34,0.0,6.0,85,0.00,,,0.00,meteohub,2013-02-09 07:02:00,
2013-02-09 02:07:00,36.0,31.8,30.24,NW,304,0.0,6.0,85,0.00,,,0.00,meteohub,2013-02-09 07:07:00,
2013-02-09 02:12:00,35.8,31.6,30.24,NW,304,0.0,4.0,85,0.00,,,0.00,meteohub,2013-02-09 07:12:00,
2013-02-09 02:17:00,35.8,31.6,30.24,NW,304,0.0,4.0,85,0.00,,,0.00,meteohub,2013-02-09 07:17:00,
2013-02-09 02:22:00,35.8,31.6,30.24,NW,304,0.0,4.0,85,0.00,,,0.00,meteohub,2013-02-09 07:22:00,
2013-02-09 02:27:00,35.6,31.8,30.24,NW,304,0.0,2.0,86,0.00,,,0.00,meteohub,2013-02-09 07:27:00,
2013-02-09 02:32:00,35.4,31.6,30.24,WNW,300,0.0,1.0,86,0.00,,,0.00,meteohub,2013-02-09 07:32:00,
2013-02-09 02:37:00,35.4,31.6,30.24,WNW,301,0.0,2.0,86,0.00,,,0.00,meteohub,2013-02-09 07:37:00,
2013-02-09 02:42:00,35.4,31.6,30.25,NW,306,0.0,4.0,86,0.00,,,0.00,meteohub,2013-02-09 07:42:00,
2013-02-09 02:47:00,35.2,31.5,30.24,NW,306,0.0,4.0,86,0.00,,,0.00,meteohub,2013-02-09 07:47:00,
2013-02-09 02:52:00,35.2,31.5,30.24,NW,309,0.0,4.0,86,0.00,,,0.00,meteohub,2013-02-09 07:52:00,
2013-02-09 02:57:00,35.1,31.3,30.24,NW,309,0.0,2.0,86,0.00,,,0.00,meteohub,2013-02-09 07:57:00,
2013-02-09 03:02:00,35.1,31.3,30.24,NNW,340,0.0,2.0,86,0.00,,,0.00,meteohub,2013-02-09 08:02:00,
2013-02-09 03:07:00,34.9,31.5,30.24,NNW,348,0.0,2.0,87,0.00,,,0.00,meteohub,2013-02-09 08:07:00,
2013-02-09 03:12:00,34.9,31.5,30.24,North,355,0.0,2.0,87,0.00,,,0.00,meteohub,2013-02-09 08:12:00,
2013-02-09 03:17:00,34.9,31.5,30.25,WNW,297,2.0,2.0,87,0.00,,,0.00,meteohub,2013-02-09 08:17:00,
2013-02-09 03:22:00,34.9,31.5,30.24,NW,304,0.0,6.0,87,0.00,,,0.00,meteohub,2013-02-09 08:22:00,
2013-02-09 03:27:00,34.9,31.5,30.25,NW,309,0.0,6.0,87,0.00,,,0.00,meteohub,2013-02-09 08:27:00,
2013-02-09 03:32:00,34.9,31.5,30.25,WNW,300,1.0,6.0,87,0.00,,,0.00,meteohub,2013-02-09 08:32:00,
2013-02-09 03:37:00,34.9,31.5,30.25,WNW,303,0.0,6.0,87,0.00,,,0.00,meteohub,2013-02-09 08:37:00,
2013-02-09 03:42:00,34.9,31.5,30.25,NW,310,0.0,6.0,87,0.00,,,0.00,meteohub,2013-02-09 08:42:00,
2013-02-09 03:47:00,34.5,31.3,30.25,NW,310,2.0,6.0,88,0.00,,,0.00,meteohub,2013-02-09 08:47:00,
2013-02-09 03:52:00,34.5,31.3,30.25,NW,311,0.0,4.0,88,0.00,,,0.00,meteohub,2013-02-09 08:52:00,
2013-02-09 03:57:00,34.5,31.3,30.25,NW,324,0.0,9.0,88,0.00,,,0.00,meteohub,2013-02-09 08:57:00,
2013-02-09 04:02:00,34.5,31.3,30.25,WNW,297,0.0,9.0,88,0.00,,,0.00,meteohub,2013-02-09 09:02:00,
2013-02-09 04:07:00,34.5,31.3,30.25,NW,305,0.0,9.0,88,0.00,,,0.00,meteohub,2013-02-09 09:07:00,
2013-02-09 04:12:00,34.7,31.5,30.25,NNW,345,0.0,6.0,88,0.00,,,0.00,meteohub,2013-02-09 09:12:00,
2013-02-09 04:17:00,34.5,31.3,30.25,NNW,335,0.0,5.0,88,0.00,,,0.00,meteohub,2013-02-09 09:17:00,
2013-02-09 04:22:00,34.5,31.3,30.25,WNW,301,1.0,6.0,88,0.00,,,0.00,meteohub,2013-02-09 09:22:00,
2013-02-09 04:27:00,34.5,31.3,30.25,NW,304,0.0,6.0,88,0.00,,,0.00,meteohub,2013-02-09 09:27:00,
2013-02-09 04:32:00,34.3,31.1,30.25,NW,308,0.0,6.0,88,0.00,,,0.00,meteohub,2013-02-09 09:32:00,
2013-02-09 04:37:00,34.3,31.1,30.25,NE,34,0.0,4.0,88,0.00,,,0.00,meteohub,2013-02-09 09:37:00,
2013-02-09 04:42:00,34.3,31.1,30.25,NNW,331,2.0,5.0,88,0.00,,,0.00,meteohub,2013-02-09 09:42:00,
2013-02-09 04:47:00,34.2,30.9,30.25,WNW,299,2.0,5.0,88,0.00,,,0.00,meteohub,2013-02-09 09:47:00,
2013-02-09 04:52:00,34.2,30.9,30.26,WNW,302,0.0,5.0,88,0.00,,,0.00,meteohub,2013-02-09 09:52:00,
2013-02-09 04:57:00,34.0,30.7,30.26,NW,307,1.0,4.0,88,0.00,,,0.00,meteohub,2013-02-09 09:57:00,
2013-02-09 05:02:00,34.0,31.1,30.26,NW,307,0.0,4.0,89,0.00,,,0.00,meteohub,2013-02-09 10:02:00,
2013-02-09 05:07:00,34.0,30.7,30.26,NW,306,0.0,2.0,88,0.00,,,0.00,meteohub,2013-02-09 10:07:00,
2013-02-09 05:12:00,34.0,30.7,30.26,NW,313,1.0,6.0,88,0.00,,,0.00,meteohub,2013-02-09 10:12:00,
2013-02-09 05:17:00,34.0,30.7,30.26,NW,314,0.0,6.0,88,0.00,,,0.00,meteohub,2013-02-09 10:17:00,
2013-02-09 05:22:00,34.0,30.7,30.26,NW,315,0.0,6.0,88,0.00,,,0.00,meteohub,2013-02-09 10:22:00,
2013-02-09 05:27:00,34.0,30.7,30.26,NW,321,4.0,4.0,88,0.00,,,0.00,meteohub,2013-02-09 10:27:00,
2013-02-09 05:32:00,34.0,30.7,30.26,NW,313,1.0,4.0,88,0.00,,,0.00,meteohub,2013-02-09 10:32:00,
2013-02-09 05:37:00,33.8,30.6,30.26,WNW,301,0.0,4.0,88,0.00,,,0.00,meteohub,2013-02-09 10:37:00,
2013-02-09 05:42:00,33.8,30.6,30.26,NNW,329,2.0,4.0,88,0.00,,,0.00,meteohub,2013-02-09 10:42:00,
2013-02-09 05:47:00,33.6,30.4,30.27,NNW,342,0.0,5.0,88,0.00,,,0.00,meteohub,2013-02-09 10:47:00,
2013-02-09 05:52:00,33.6,30.4,30.27,NNW,338,0.0,5.0,88,0.00,,,0.00,meteohub,2013-02-09 10:52:00,
2013-02-09 05:57:00,33.6,30.4,30.27,NNW,338,0.0,5.0,88,0.00,,,0.00,meteohub,2013-02-09 10:57:00,
2013-02-09 06:02:00,33.6,30.4,30.27,NNW,338,1.0,4.0,88,0.00,,,0.00,meteohub,2013-02-09 11:02:00,
2013-02-09 06:07:00,33.4,30.2,30.26,NNW,338,0.0,4.0,88,0.00,,,0.00,meteohub,2013-02-09 11:07:00,
2013-02-09 06:12:00,33.4,30.6,30.26,NNW,338,0.0,1.0,89,0.00,,,0.00,meteohub,2013-02-09 11:12:00,
2013-02-09 06:17:00,33.3,30.4,30.27,NNW,338,0.0,2.0,89,0.00,,,0.00,meteohub,2013-02-09 11:17:00,
2013-02-09 06:22:00,33.3,30.4,30.27,NNW,338,0.0,2.0,89,0.00,,,0.00,meteohub,2013-02-09 11:22:00,
2013-02-09 06:27:00,33.1,30.2,30.27,NNW,338,1.0,2.0,89,0.00,,,0.00,meteohub,2013-02-09 11:27:00,
2013-02-09 06:32:00,33.3,30.4,30.27,NNW,348,0.0,2.0,89,0.00,,,0.00,meteohub,2013-02-09 11:32:00,
2013-02-09 06:37:00,33.3,30.4,30.27,NW,316,1.0,3.0,89,0.00,,,0.00,meteohub,2013-02-09 11:37:00,
2013-02-09 06:42:00,33.3,30.4,30.27,North,355,1.0,6.0,89,0.00,,,0.00,meteohub,2013-02-09 11:42:00,
2013-02-09 06:47:00,33.3,30.4,30.27,NW,325,0.0,6.0,89,0.00,,,0.00,meteohub,2013-02-09 11:47:00,
2013-02-09 06:52:00,33.3,30.4,30.27,NNW,343,0.0,4.0,89,0.00,,,0.00,meteohub,2013-02-09 11:52:00,
2013-02-09 06:57:00,33.1,30.2,30.27,NNW,344,0.0,5.0,89,0.00,,,0.00,meteohub,2013-02-09 11:57:00,
2013-02-09 07:02:00,33.1,30.2,30.28,NNW,329,0.0,5.0,89,0.00,,,0.00,meteohub,2013-02-09 12:02:00,
2013-02-09 07:07:00,32.9,30.0,30.28,NW,316,0.0,5.0,89,0.00,,,0.00,meteohub,2013-02-09 12:07:00,
2013-02-09 07:12:00,32.7,29.8,30.28,NW,316,0.0,5.0,89,0.00,,,0.00,meteohub,2013-02-09 12:12:00,
2013-02-09 07:17:00,32.7,29.8,30.29,NE,52,0.0,5.0,89,0.00,,,0.00,meteohub,2013-02-09 12:17:00,
2013-02-09 07:22:00,32.7,29.8,30.28,NE,55,0.0,2.0,89,0.00,,,0.00,meteohub,2013-02-09 12:22:00,
2013-02-09 07:27:00,32.7,29.8,30.29,NE,55,0.0,2.0,89,0.00,,,0.00,meteohub,2013-02-09 12:27:00,
2013-02-09 07:32:00,32.7,29.8,30.29,NE,55,0.0,2.0,89,0.00,,,0.00,meteohub,2013-02-09 12:32:00,
2013-02-09 07:37:00,32.5,29.7,30.29,NE,54,0.0,1.0,89,0.00,,,0.00,meteohub,2013-02-09 12:37:00,
2013-02-09 07:42:00,32.5,29.7,30.30,North,355,0.0,1.0,89,0.00,,,0.00,meteohub,2013-02-09 12:42:00,
2013-02-09 07:47:00,32.4,29.5,30.30,North,355,0.0,2.0,89,0.00,,,0.00,meteohub,2013-02-09 12:47:00,
2013-02-09 07:52:00,32.4,29.5,30.30,NNW,329,0.0,2.0,89,0.00,,,0.00,meteohub,2013-02-09 12:52:00,
2013-02-09 07:57:00,32.5,30.0,30.30,NNW,329,0.0,2.0,90,0.00,,,0.00,meteohub,2013-02-09 12:57:00,
2013-02-09 08:03:00,32.5,30.0,30.30,NNW,329,0.0,2.0,90,0.00,,,0.00,meteohub,2013-02-09 13:03:00,
2013-02-09 08:08:00,32.7,29.8,30.30,North,5,0.0,2.0,89,0.00,,,0.00,meteohub,2013-02-09 13:08:00,
2013-02-09 08:13:00,33.1,30.2,30.31,NE,37,0.0,1.0,89,0.00,,,0.00,meteohub,2013-02-09 13:13:00,
2013-02-09 08:18:00,33.4,30.2,30.31,NNW,337,0.0,2.0,88,0.00,,,0.00,meteohub,2013-02-09 13:18:00,
2013-02-09 08:23:00,33.6,30.4,30.31,NNE,12,0.0,2.0,88,0.00,,,0.00,meteohub,2013-02-09 13:23:00,
2013-02-09 08:28:00,34.0,30.6,30.32,North,9,1.0,2.0,87,0.00,,,0.00,meteohub,2013-02-09 13:28:00,
2013-02-09 08:33:00,34.3,30.6,30.32,NNE,26,1.0,4.0,86,0.00,,,0.00,meteohub,2013-02-09 13:33:00,
2013-02-09 08:38:00,34.7,30.9,30.32,NW,317,1.0,4.0,86,0.00,,,0.00,meteohub,2013-02-09 13:38:00,
2013-02-09 08:43:00,35.1,30.9,30.32,NW,307,0.0,4.0,85,0.00,,,0.00,meteohub,2013-02-09 13:43:00,
2013-02-09 08:48:00,35.4,30.7,30.32,NNW,330,1.0,4.0,83,0.00,,,0.00,meteohub,2013-02-09 13:48:00,
2013-02-09 08:53:00,36.1,31.5,30.32,North,5,2.0,5.0,83,0.00,,,0.00,meteohub,2013-02-09 13:53:00,
2013-02-09 08:58:00,36.9,31.8,30.32,North,355,4.0,5.0,82,0.00,,,0.00,meteohub,2013-02-09 13:58:00,
2013-02-09 09:03:00,37.6,32.4,30.32,North,355,1.0,5.0,81,0.00,,,0.00,meteohub,2013-02-09 14:03:00,
2013-02-09 09:08:00,38.1,32.2,30.32,North,0,0.0,4.0,79,0.00,,,0.00,meteohub,2013-02-09 14:08:00,
2013-02-09 09:13:00,38.7,32.0,30.32,NNE,24,0.0,4.0,77,0.00,,,0.00,meteohub,2013-02-09 14:13:00,
2013-02-09 09:18:00,38.7,32.0,30.33,NE,46,1.0,4.0,77,0.00,,,0.00,meteohub,2013-02-09 14:18:00,
2013-02-09 09:23:00,38.5,31.8,30.33,NE,36,1.0,6.0,77,0.00,,,0.00,meteohub,2013-02-09 14:23:00,
2013-02-09 09:29:00,39.0,32.4,30.33,NE,34,1.0,6.0,77,0.00,,,0.00,meteohub,2013-02-09 14:29:00,
2013-02-09 09:34:00,40.5,33.4,30.34,NE,38,1.0,6.0,76,0.00,,,0.00,meteohub,2013-02-09 14:34:00,
2013-02-09 09:39:00,40.5,32.5,30.34,NE,36,0.0,6.0,73,0.00,,,0.00,meteohub,2013-02-09 14:39:00,
2013-02-09 09:44:00,40.6,32.7,30.34,NE,36,2.0,4.0,73,0.00,,,0.00,meteohub,2013-02-09 14:44:00,
2013-02-09 09:49:00,40.8,33.3,30.34,ENE,63,1.0,3.0,74,0.00,,,0.00,meteohub,2013-02-09 14:49:00,
2013-02-09 09:54:00,41.7,33.6,30.34,NNE,18,2.0,3.0,73,0.00,,,0.00,meteohub,2013-02-09 14:54:00,
2013-02-09 09:59:00,42.3,33.6,30.34,NNE,32,0.0,3.0,71,0.00,,,0.00,meteohub,2013-02-09 14:59:00,
2013-02-09 10:04:00,43.0,33.4,30.34,NE,53,0.0,3.0,69,0.00,,,0.00,meteohub,2013-02-09 15:04:00,
2013-02-09 10:09:00,43.9,34.7,30.35,NE,53,0.0,3.0,70,0.00,,,0.00,meteohub,2013-02-09 15:09:00,
2013-02-09 10:14:00,46.0,36.5,30.35,NE,38,0.0,3.0,69,0.00,,,0.00,meteohub,2013-02-09 15:14:00,
2013-02-09 10:19:00,46.4,35.2,30.35,NE,38,0.0,3.0,65,0.00,,,0.00,meteohub,2013-02-09 15:19:00,
2013-02-09 10:24:00,46.8,34.0,30.34,NE,38,0.0,2.0,61,0.00,,,0.00,meteohub,2013-02-09 15:24:00,
2013-02-09 10:29:00,46.6,34.3,30.35,ENE,72,1.0,2.0,62,0.00,,,0.00,meteohub,2013-02-09 15:29:00,
2013-02-09 10:34:00,47.8,36.7,30.35,East,79,0.0,3.0,65,0.00,,,0.00,meteohub,2013-02-09 15:34:00,
2013-02-09 10:39:00,47.1,33.1,30.35,East,79,0.0,3.0,58,0.00,,,0.00,meteohub,2013-02-09 15:39:00,
2013-02-09 10:44:00,47.8,35.4,30.35,East,79,0.0,3.0,62,0.00,,,0.00,meteohub,2013-02-09 15:44:00,
2013-02-09 10:49:00,48.9,35.2,30.36,East,79,0.0,3.0,59,0.00,,,0.00,meteohub,2013-02-09 15:49:00,
2013-02-09 10:54:00,50.4,36.5,30.36,East,90,0.0,3.0,59,0.00,,,0.00,meteohub,2013-02-09 15:54:00,
2013-02-09 10:59:00,51.6,37.8,30.36,East,90,0.0,2.0,59,0.00,,,0.00,meteohub,2013-02-09 15:59:00,
2013-02-09 11:04:00,51.3,34.7,30.36,East,90,0.0,2.0,53,0.00,,,0.00,meteohub,2013-02-09 16:04:00,
2013-02-09 11:10:00,51.4,36.7,30.36,SSE,148,0.0,2.0,57,0.00,,,0.00,meteohub,2013-02-09 16:10:00,
2013-02-09 11:15:00,52.2,35.6,30.35,SE,138,0.0,4.0,53,0.00,,,0.00,meteohub,2013-02-09 16:15:00,
2013-02-09 11:20:00,51.1,33.6,30.35,East,100,0.0,4.0,51,0.00,,,0.00,meteohub,2013-02-09 16:20:00,
2013-02-09 11:25:00,51.6,36.9,30.35,East,101,0.0,2.0,57,0.00,,,0.00,meteohub,2013-02-09 16:25:00,
2013-02-09 11:30:00,53.4,34.2,30.35,South,175,1.0,2.0,48,0.00,,,0.00,meteohub,2013-02-09 16:30:00,
2013-02-09 11:35:00,53.8,34.5,30.35,South,173,0.0,2.0,48,0.00,,,0.00,meteohub,2013-02-09 16:35:00,
2013-02-09 11:40:00,52.9,32.7,30.35,NE,53,0.0,3.0,46,0.00,,,0.00,meteohub,2013-02-09 16:40:00,
2013-02-09 11:45:00,53.6,35.4,30.35,NE,53,0.0,4.0,50,0.00,,,0.00,meteohub,2013-02-09 16:45:00,
2013-02-09 11:50:00,54.3,35.1,30.34,East,79,0.0,4.0,48,0.00,,,0.00,meteohub,2013-02-09 16:50:00,
2013-02-09 11:55:00,54.9,36.5,30.34,South,191,0.0,4.0,50,0.00,,,0.00,meteohub,2013-02-09 16:55:00,
2013-02-09 12:00:00,55.2,34.9,30.34,South,191,0.0,4.0,46,0.00,,,0.00,meteohub,2013-02-09 17:00:00,
2013-02-09 12:05:00,55.9,36.0,30.34,ENE,75,0.0,3.0,47,0.00,,,0.00,meteohub,2013-02-09 17:05:00,
2013-02-09 12:10:00,55.6,32.9,30.33,ENE,57,1.0,2.0,42,0.00,,,0.00,meteohub,2013-02-09 17:10:00,
2013-02-09 12:15:00,55.6,32.9,30.33,SSW,195,0.0,4.0,42,0.00,,,0.00,meteohub,2013-02-09 17:15:00,
2013-02-09 12:21:00,55.4,31.5,30.34,SSW,201,0.0,4.0,40,0.00,,,0.00,meteohub,2013-02-09 17:21:00,
2013-02-09 12:26:00,55.9,31.3,30.33,NE,48,2.0,4.0,39,0.00,,,0.00,meteohub,2013-02-09 17:26:00,
2013-02-09 12:31:00,54.9,30.9,30.33,NE,40,3.0,5.0,40,0.00,,,0.00,meteohub,2013-02-09 17:31:00,
2013-02-09 12:36:00,54.9,34.0,30.33,NE,40,0.0,5.0,45,0.00,,,0.00,meteohub,2013-02-09 17:36:00,
2013-02-09 12:41:00,55.2,34.2,30.33,NE,43,0.0,5.0,45,0.00,,,0.00,meteohub,2013-02-09 17:41:00,
2013-02-09 12:46:00,56.5,33.1,30.33,SE,145,0.0,4.0,41,0.00,,,0.00,meteohub,2013-02-09 17:46:00,
2013-02-09 12:51:00,56.7,33.3,30.33,ESE,123,2.0,5.0,41,0.00,,,0.00,meteohub,2013-02-09 17:51:00,
2013-02-09 12:56:00,56.7,30.7,30.32,South,170,0.0,5.0,37,0.00,,,0.00,meteohub,2013-02-09 17:56:00,
2013-02-09 13:01:00,56.5,30.6,30.32,NE,55,0.0,4.0,37,0.00,,,0.00,meteohub,2013-02-09 18:01:00,
2013-02-09 13:06:00,56.1,34.0,30.32,ENE,71,0.0,4.0,43,0.00,,,0.00,meteohub,2013-02-09 18:06:00,
2013-02-09 13:11:00,56.7,33.8,30.31,South,173,2.0,3.0,42,0.00,,,0.00,meteohub,2013-02-09 18:11:00,
2013-02-09 13:16:00,56.8,30.2,30.31,SE,141,1.0,4.0,36,0.00,,,0.00,meteohub,2013-02-09 18:16:00,
2013-02-09 13:21:00,57.4,31.3,30.31,SSE,153,0.0,4.0,37,0.00,,,0.00,meteohub,2013-02-09 18:21:00,
2013-02-09 13:27:00,57.7,30.2,30.30,SE,140,0.0,4.0,35,0.00,,,0.00,meteohub,2013-02-09 18:27:00,
2013-02-09 13:32:00,58.1,32.5,30.30,SSW,207,0.0,4.0,38,0.00,,,0.00,meteohub,2013-02-09 18:32:00,
2013-02-09 13:37:00,57.9,29.7,30.30,SSW,207,0.0,4.0,34,0.00,,,0.00,meteohub,2013-02-09 18:37:00,
2013-02-09 13:42:00,58.1,32.0,30.30,SSW,209,2.0,4.0,37,0.00,,,0.00,meteohub,2013-02-09 18:42:00,
2013-02-09 13:47:00,57.9,29.7,30.30,SSE,167,1.0,2.0,34,0.00,,,0.00,meteohub,2013-02-09 18:47:00,
2013-02-09 13:52:00,57.4,29.3,30.30,SSW,194,0.0,4.0,34,0.00,,,0.00,meteohub,2013-02-09 18:52:00,
2013-02-09 13:57:00,57.0,29.7,30.30,South,177,0.0,4.0,35,0.00,,,0.00,meteohub,2013-02-09 18:57:00,
2013-02-09 14:02:00,57.2,31.1,30.29,SSE,153,0.0,4.0,37,0.00,,,0.00,meteohub,2013-02-09 19:02:00,
2013-02-09 14:07:00,57.6,31.5,30.29,South,189,0.0,4.0,37,0.00,,,0.00,meteohub,2013-02-09 19:07:00,
2013-02-09 14:12:00,57.6,31.5,30.28,SSW,207,0.0,3.0,37,0.00,,,0.00,meteohub,2013-02-09 19:12:00,
2013-02-09 14:17:00,57.7,29.5,30.28,SSE,147,0.0,3.0,34,0.00,,,0.00,meteohub,2013-02-09 19:17:00,
2013-02-09 14:22:00,57.9,32.5,30.28,SE,146,1.0,4.0,38,0.00,,,0.00,meteohub,2013-02-09 19:22:00,
2013-02-09 14:27:00,58.3,32.7,30.27,South,171,1.0,4.0,38,0.00,,,0.00,meteohub,2013-02-09 19:27:00,
2013-02-09 14:32:00,58.3,31.5,30.28,SSW,212,0.0,4.0,36,0.00,,,0.00,meteohub,2013-02-09 19:32:00,
2013-02-09 14:37:00,58.3,32.2,30.28,SW,232,3.0,4.0,37,0.00,,,0.00,meteohub,2013-02-09 19:37:00,
2013-02-09 14:42:00,58.6,32.4,30.28,SSW,195,0.0,4.0,37,0.00,,,0.00,meteohub,2013-02-09 19:42:00,
2013-02-09 14:47:00,58.5,30.9,30.27,South,188,1.0,4.0,35,0.00,,,0.00,meteohub,2013-02-09 19:47:00,
2013-02-09 14:52:00,58.6,33.8,30.27,SE,129,0.0,4.0,39,0.00,,,0.00,meteohub,2013-02-09 19:52:00,
2013-02-09 14:57:00,58.8,30.6,30.27,South,180,1.0,4.0,34,0.00,,,0.00,meteohub,2013-02-09 19:57:00,
2013-02-09 15:02:00,59.0,32.0,30.27,South,181,0.0,4.0,36,0.00,,,0.00,meteohub,2013-02-09 20:02:00,
2013-02-09 15:07:00,59.2,30.7,30.27,ESE,117,0.0,4.0,34,0.00,,,0.00,meteohub,2013-02-09 20:07:00,
2013-02-09 15:12:00,59.2,30.7,30.27,ESE,117,0.0,4.0,34,0.00,,,0.00,meteohub,2013-02-09 20:12:00,
2013-02-09 15:17:00,59.2,30.7,30.26,SE,136,0.0,4.0,34,0.00,,,0.00,meteohub,2013-02-09 20:17:00,
2013-02-09 15:22:00,59.4,30.9,30.27,SW,233,0.0,4.0,34,0.00,,,0.00,meteohub,2013-02-09 20:22:00,
2013-02-09 15:27:00,59.5,31.1,30.27,SW,219,0.0,4.0,34,0.00,,,0.00,meteohub,2013-02-09 20:27:00,
2013-02-09 15:32:00,59.5,31.1,30.27,SW,218,0.0,5.0,34,0.00,,,0.00,meteohub,2013-02-09 20:32:00,
2013-02-09 15:37:00,59.7,31.3,30.26,SW,214,1.0,5.0,34,0.00,,,0.00,meteohub,2013-02-09 20:37:00,
2013-02-09 15:42:00,60.3,31.1,30.26,NNE,26,0.0,6.0,33,0.00,,,0.00,meteohub,2013-02-09 20:42:00,
2013-02-09 15:47:00,60.1,30.9,30.26,SSE,166,1.0,6.0,33,0.00,,,0.00,meteohub,2013-02-09 20:47:00,
2013-02-09 15:52:00,59.7,31.3,30.26,South,171,0.0,6.0,34,0.00,,,0.00,meteohub,2013-02-09 20:52:00,
2013-02-09 15:57:00,59.7,32.0,30.26,South,184,0.0,6.0,35,0.00,,,0.00,meteohub,2013-02-09 20:57:00,
2013-02-09 16:02:00,60.1,30.9,30.26,SE,130,5.0,5.0,33,0.00,,,0.00,meteohub,2013-02-09 21:02:00,
2013-02-09 16:07:00,60.3,30.2,30.26,SSW,194,0.0,7.0,32,0.00,,,0.00,meteohub,2013-02-09 21:07:00,
2013-02-09 16:12:00,60.3,30.2,30.26,SSW,198,0.0,7.0,32,0.00,,,0.00,meteohub,2013-02-09 21:12:00,
2013-02-09 16:17:00,60.4,29.7,30.26,South,172,0.0,7.0,31,0.00,,,0.00,meteohub,2013-02-09 21:17:00,
2013-02-09 16:22:00,60.3,31.1,30.26,South,172,0.0,4.0,33,0.00,,,0.00,meteohub,2013-02-09 21:22:00,
2013-02-09 16:27:00,60.3,32.5,30.26,South,185,0.0,4.0,35,0.00,,,0.00,meteohub,2013-02-09 21:27:00,
2013-02-09 16:32:00,60.1,30.9,30.26,South,185,0.0,4.0,33,0.00,,,0.00,meteohub,2013-02-09 21:32:00,
2013-02-09 16:37:00,59.9,30.0,30.26,SE,135,0.0,4.0,32,0.00,,,0.00,meteohub,2013-02-09 21:37:00,
2013-02-09 16:43:00,59.7,30.6,30.26,SE,135,0.0,4.0,33,0.00,,,0.00,meteohub,2013-02-09 21:43:00,
2013-02-09 16:48:00,59.7,31.3,30.26,South,182,0.0,4.0,34,0.00,,,0.00,meteohub,2013-02-09 21:48:00,
2013-02-09 16:53:00,59.5,31.8,30.26,WSW,249,0.0,4.0,35,0.00,,,0.00,meteohub,2013-02-09 21:53:00,
2013-02-09 16:58:00,59.4,30.9,30.27,WSW,248,0.0,3.0,34,0.00,,,0.00,meteohub,2013-02-09 21:58:00,
2013-02-09 17:03:00,59.0,31.5,30.27,SW,217,0.0,3.0,35,0.00,,,0.00,meteohub,2013-02-09 22:03:00,
2013-02-09 17:08:00,58.8,32.0,30.27,SW,217,0.0,2.0,36,0.00,,,0.00,meteohub,2013-02-09 22:08:00,
2013-02-09 17:13:00,58.6,31.1,30.27,SW,221,0.0,2.0,35,0.00,,,0.00,meteohub,2013-02-09 22:13:00,
2013-02-09 17:18:00,58.5,31.6,30.27,SW,221,1.0,2.0,36,0.00,,,0.00,meteohub,2013-02-09 22:18:00,
2013-02-09 17:23:00,58.3,30.7,30.27,SW,215,0.0,2.0,35,0.00,,,0.00,meteohub,2013-02-09 22:23:00,
2013-02-09 17:28:00,58.1,31.3,30.27,SW,217,0.0,3.0,36,0.00,,,0.00,meteohub,2013-02-09 22:28:00,
2013-02-09 17:33:00,57.7,31.6,30.27,SW,217,0.0,3.0,37,0.00,,,0.00,meteohub,2013-02-09 22:33:00,
2013-02-09 17:38:00,57.6,31.5,30.27,SW,217,0.0,3.0,37,0.00,,,0.00,meteohub,2013-02-09 22:38:00,
2013-02-09 17:43:00,57.2,31.1,30.27,SW,217,0.0,2.0,37,0.00,,,0.00,meteohub,2013-02-09 22:43:00,
2013-02-09 17:48:00,56.8,32.2,30.27,SW,217,0.0,2.0,39,0.00,,,0.00,meteohub,2013-02-09 22:48:00,
2013-02-09 17:54:00,56.7,32.5,30.27,SW,217,0.0,2.0,40,0.00,,,0.00,meteohub,2013-02-09 22:54:00,
2013-02-09 17:59:00,56.1,31.5,30.27,SSW,197,0.0,0.0,39,0.00,,,0.00,meteohub,2013-02-09 22:59:00,
2013-02-09 18:04:00,55.8,31.8,30.28,SSW,197,0.0,1.0,40,0.00,,,0.00,meteohub,2013-02-09 23:04:00,
2013-02-09 18:09:00,55.6,32.2,30.28,SSW,197,0.0,1.0,41,0.00,,,0.00,meteohub,2013-02-09 23:09:00,
2013-02-09 18:14:00,55.0,32.4,30.28,SSW,197,0.0,0.0,42,0.00,,,0.00,meteohub,2013-02-09 23:14:00,
2013-02-09 18:19:00,54.9,32.7,30.28,SSW,197,0.0,0.0,43,0.00,,,0.00,meteohub,2013-02-09 23:19:00,
2013-02-09 18:24:00,54.1,32.2,30.28,SSW,197,0.0,0.0,43,0.00,,,0.00,meteohub,2013-02-09 23:24:00,
2013-02-09 18:29:00,53.8,32.9,30.29,SSW,197,0.0,0.0,45,0.00,,,0.00,meteohub,2013-02-09 23:29:00,
2013-02-09 18:34:00,53.2,33.1,30.29,SSW,197,0.0,0.0,46,0.00,,,0.00,meteohub,2013-02-09 23:34:00,
2013-02-09 18:39:00,52.7,33.6,30.28,SSW,197,0.0,0.0,48,0.00,,,0.00,meteohub,2013-02-09 23:39:00,
2013-02-09 18:44:00,52.2,33.1,30.29,SSW,197,0.0,0.0,48,0.00,,,0.00,meteohub,2013-02-09 23:44:00,
2013-02-09 18:49:00,51.8,32.7,30.29,SSW,197,0.0,0.0,48,0.00,,,0.00,meteohub,2013-02-09 23:49:00,
2013-02-09 18:54:00,51.4,32.9,30.29,SSW,197,0.0,0.0,49,0.00,,,0.00,meteohub,2013-02-09 23:54:00,
2013-02-09 18:59:00,51.3,32.7,30.29,SSW,197,0.0,0.0,49,0.00,,,0.00,meteohub,2013-02-09 23:59:00,
2013-02-09 19:04:00,50.7,33.8,30.29,SSW,197,0.0,0.0,52,0.00,,,0.00,meteohub,2013-02-10 00:04:00,
2013-02-09 19:09:00,50.2,33.3,30.30,SSW,197,0.0,0.0,52,0.00,,,0.00,meteohub,2013-02-10 00:09:00,
2013-02-09 19:14:00,49.6,33.6,30.30,SSW,197,0.0,0.0,54,0.00,,,0.00,meteohub,2013-02-10 00:14:00,
2013-02-09 19:19:00,49.3,33.3,30.30,SSW,197,0.0,0.0,54,0.00,,,0.00,meteohub,2013-02-10 00:19:00,
2013-02-09 19:25:00,48.9,33.1,30.30,SSW,197,0.0,0.0,54,0.00,,,0.00,meteohub,2013-02-10 00:25:00,
2013-02-09 19:30:00,48.7,33.3,30.30,SSW,197,0.0,0.0,55,0.00,,,0.00,meteohub,2013-02-10 00:30:00,
2013-02-09 19:35:00,48.4,32.9,30.30,SSW,197,0.0,0.0,55,0.00,,,0.00,meteohub,2013-02-10 00:35:00,
2013-02-09 19:40:00,48.0,32.5,30.30,SSW,197,0.0,0.0,55,0.00,,,0.00,meteohub,2013-02-10 00:40:00,
2013-02-09 19:45:00,47.8,32.5,30.30,SSW,197,0.0,0.0,55,0.00,,,0.00,meteohub,2013-02-10 00:45:00,
2013-02-09 19:50:00,47.7,32.7,30.30,SSW,197,0.0,0.0,56,0.00,,,0.00,meteohub,2013-02-10 00:50:00,
2013-02-09 19:55:00,47.5,33.4,30.30,SSW,197,0.0,0.0,58,0.00,,,0.00,meteohub,2013-02-10 00:55:00,
2013-02-09 20:00:00,47.1,33.1,30.30,SSW,197,0.0,0.0,58,0.00,,,0.00,meteohub,2013-02-10 01:00:00,
2013-02-09 20:05:00,46.9,32.5,30.30,SSW,197,0.0,0.0,57,0.00,,,0.00,meteohub,2013-02-10 01:05:00,
2013-02-09 20:10:00,46.9,32.9,30.30,SSW,197,0.0,0.0,58,0.00,,,0.00,meteohub,2013-02-10 01:10:00,
2013-02-09 20:15:00,46.8,32.4,30.30,SSW,197,0.0,0.0,57,0.00,,,0.00,meteohub,2013-02-10 01:15:00,
2013-02-09 20:21:00,46.6,32.2,30.30,SSW,197,0.0,0.0,57,0.00,,,0.00,meteohub,2013-02-10 01:21:00,
2013-02-09 20:26:00,46.2,32.2,30.30,SSW,197,0.0,0.0,58,0.00,,,0.00,meteohub,2013-02-10 01:26:00,
2013-02-09 20:31:00,46.0,32.9,30.30,SSW,197,0.0,0.0,60,0.00,,,0.00,meteohub,2013-02-10 01:31:00,
2013-02-09 20:36:00,45.9,32.7,30.29,SSW,197,0.0,0.0,60,0.00,,,0.00,meteohub,2013-02-10 01:36:00,
2013-02-09 20:41:00,45.7,32.5,30.29,SSW,197,0.0,0.0,60,0.00,,,0.00,meteohub,2013-02-10 01:41:00,
2013-02-09 20:46:00,45.7,32.2,30.29,SSW,197,0.0,0.0,59,0.00,,,0.00,meteohub,2013-02-10 01:46:00,
2013-02-09 20:51:00,45.3,32.2,30.30,SSW,197,0.0,0.0,60,0.00,,,0.00,meteohub,2013-02-10 01:51:00,
2013-02-09 20:56:00,45.1,32.5,30.30,SSW,197,0.0,0.0,61,0.00,,,0.00,meteohub,2013-02-10 01:56:00,
2013-02-09 21:01:00,45.1,32.5,30.30,SSW,197,0.0,0.0,61,0.00,,,0.00,meteohub,2013-02-10 02:01:00,
2013-02-09 21:06:00,45.0,32.7,30.30,SSW,197,0.0,0.0,62,0.00,,,0.00,meteohub,2013-02-10 02:06:00,
2013-02-09 21:11:00,45.0,33.1,30.30,SSW,197,0.0,0.0,63,0.00,,,0.00,meteohub,2013-02-10 02:11:00,
2013-02-09 21:16:00,45.0,33.4,30.30,SSW,197,0.0,0.0,64,0.00,,,0.00,meteohub,2013-02-10 02:16:00,
2013-02-09 21:21:00,44.8,32.9,30.31,SSW,197,0.0,0.0,63,0.00,,,0.00,meteohub,2013-02-10 02:21:00,
2013-02-09 21:27:00,44.6,33.3,30.30,SSW,197,0.0,0.0,64,0.00,,,0.00,meteohub,2013-02-10 02:27:00,
2013-02-09 21:32:00,44.4,33.8,30.30,SSW,197,0.0,0.0,66,0.00,,,0.00,meteohub,2013-02-10 02:32:00,
2013-02-09 21:37:00,44.2,33.6,30.30,SSW,197,0.0,0.0,66,0.00,,,0.00,meteohub,2013-02-10 02:37:00,
2013-02-09 21:42:00,44.2,33.6,30.31,SSW,197,0.0,0.0,66,0.00,,,0.00,meteohub,2013-02-10 02:42:00,
2013-02-09 21:47:00,44.2,33.6,30.31,SSW,197,0.0,0.0,66,0.00,,,0.00,meteohub,2013-02-10 02:47:00,
2013-02-09 21:52:00,44.1,33.4,30.31,SSW,197,0.0,0.0,66,0.00,,,0.00,meteohub,2013-02-10 02:52:00,
2013-02-09 21:57:00,44.1,33.1,30.30,SSW,197,0.0,0.0,65,0.00,,,0.00,meteohub,2013-02-10 02:57:00,
2013-02-09 22:02:00,44.1,33.1,30.30,SSW,197,0.0,0.0,65,0.00,,,0.00,meteohub,2013-02-10 03:02:00,
2013-02-09 22:07:00,44.1,33.4,30.31,SSW,197,0.0,0.0,66,0.00,,,0.00,meteohub,2013-02-10 03:07:00,
2013-02-09 22:12:00,43.9,32.9,30.31,SSW,197,0.0,0.0,65,0.00,,,0.00,meteohub,2013-02-10 03:12:00,
2013-02-09 22:17:00,43.9,32.9,30.30,SSW,197,0.0,0.0,65,0.00,,,0.00,meteohub,2013-02-10 03:17:00,
2013-02-09 22:22:00,43.9,33.3,30.30,SSW,197,0.0,0.0,66,0.00,,,0.00,meteohub,2013-02-10 03:22:00,
2013-02-09 22:27:00,43.7,33.1,30.31,SSW,197,0.0,0.0,66,0.00,,,0.00,meteohub,2013-02-10 03:27:00,
2013-02-09 22:33:00,43.5,33.3,30.31,SSW,197,0.0,0.0,67,0.00,,,0.00,meteohub,2013-02-10 03:33:00,
2013-02-09 22:38:00,43.5,33.3,30.31,SSW,197,0.0,0.0,67,0.00,,,0.00,meteohub,2013-02-10 03:38:00,
2013-02-09 22:43:00,43.5,33.3,30.31,SSW,197,0.0,0.0,67,0.00,,,0.00,meteohub,2013-02-10 03:43:00,
2013-02-09 22:48:00,43.3,33.4,30.31,SSW,197,0.0,0.0,68,0.00,,,0.00,meteohub,2013-02-10 03:48:00,
2013-02-09 22:53:00,43.3,33.4,30.31,SSW,197,0.0,0.0,68,0.00,,,0.00,meteohub,2013-02-10 03:53:00,
2013-02-09 22:58:00,43.3,33.8,30.31,SSW,197,0.0,0.0,69,0.00,,,0.00,meteohub,2013-02-10 03:58:00,
2013-02-09 23:03:00,43.5,33.6,30.30,SSW,197,0.0,0.0,68,0.00,,,0.00,meteohub,2013-02-10 04:03:00,
2013-02-09 23:08:00,43.5,34.0,30.30,SSW,197,0.0,0.0,69,0.00,,,0.00,meteohub,2013-02-10 04:08:00,
2013-02-09 23:13:00,43.5,33.6,30.30,SSW,197,0.0,0.0,68,0.00,,,0.00,meteohub,2013-02-10 04:13:00,
2013-02-09 23:18:00,43.7,33.8,30.31,SSW,197,0.0,0.0,68,0.00,,,0.00,meteohub,2013-02-10 04:18:00,
2013-02-09 23:23:00,43.7,33.4,30.32,SSW,197,0.0,0.0,67,0.00,,,0.00,meteohub,2013-02-10 04:23:00,
2013-02-09 23:28:00,43.7,34.2,30.31,SSW,197,0.0,0.0,69,0.00,,,0.00,meteohub,2013-02-10 04:28:00,
2013-02-09 23:33:00,43.7,34.2,30.31,SSW,197,0.0,0.0,69,0.00,,,0.00,meteohub,2013-02-10 04:33:00,
2013-02-09 23:39:00,43.9,34.0,30.31,SSW,197,0.0,0.0,68,0.00,,,0.00,meteohub,2013-02-10 04:39:00,
2013-02-09 23:44:00,43.9,33.6,30.31,SSW,197,0.0,0.0,67,0.00,,,0.00,meteohub,2013-02-10 04:44:00,
2013-02-09 23:49:00,43.9,33.3,30.31,SSW,197,0.0,0.0,66,0.00,,,0.00,meteohub,2013-02-10 04:49:00,
2013-02-09 23:54:00,43.9,34.0,30.30,SSW,197,0.0,0.0,68,0.00,,,0.00,meteohub,2013-02-10 04:54:00,
2013-02-09 23:59:00,44.1,34.2,30.30,SSW,197,0.0,0.0,68,0.00,,,0.00,meteohub,2013-02-10 04:59:00,